Current Weather Conditions: station ENFB

sailwx.info

See reports from other nearby stations

no recent reports received from weather station ID ENFB

Tides Pressure Air temp Water temp Dewpoint Dewpoint depression Visibility Wind speed Wind direction Waves Ship positions
date/time (UTC)wind fromknots sea level pressurealtimeterstation pressurevisibilityair tempwater tempwave heightnotes
2017-Dec-18 19:50 220 27 2.7 8.0 Light rain showers.
2017-Dec-18 19:20 210 32 5.4 8.0 Light rain.
2017-Dec-18 18:50 210 33 4.9 8.0 Light rain.
2017-Dec-18 18:20 200 34 3.8 8.0 Light rain.
2017-Dec-18 17:50 200 34 2.1 7.0 Light rain. Mist.
2017-Dec-18 17:20 200 34 1.9 7.0 Light rain. Mist.
2017-Dec-18 16:50 200 32 2.7 7.0 Light rain.
2017-Dec-18 16:20 200 28 4.3 7.0 Light rain.
2017-Dec-18 15:50 200 26 1.8 7.0 Light rain. Mist.
2017-Dec-18 15:20 200 24 4.9 7.0 Light rain.
2017-Dec-18 14:50 200 24 3.2 7.0 Light rain.
2017-Dec-18 14:20 200 21 2.7 7.0 Light rain.
2017-Dec-18 13:50 210 21 4.3 7.0 Light rain.
2017-Dec-18 13:20 220 20 4.9 7.0 Light rain.
2017-Dec-18 12:50 220 20 3.2 7.0 Light rain.
2017-Dec-18 12:20 210 18 4.9 7.0 Light rain.
2017-Dec-18 11:50 220 15 5.4 7.0 Light rain.
2017-Dec-18 11:20 250 18 5.4 7.0
2017-Dec-18 10:50 250 20 5.4 7.0
2017-Dec-18 10:20 240 19 5.4 7.0
2017-Dec-18 09:50 240 17 5.4 8.0
2017-Dec-18 09:20 250 18 5.4 7.0
2017-Dec-18 08:50 240 13 5.4 7.0
2017-Dec-18 08:20 250 13 5.4 7.0
2017-Dec-18 07:50 260 20 5.4 7.0
2017-Dec-18 07:20 280 17 5.4 7.0
2017-Dec-18 06:50 280 15 5.4 7.0
2017-Dec-18 06:20 280 17 5.4 7.0
2017-Dec-18 05:50 290 18 5.4 7.0
2017-Dec-18 05:20 300 17 5.4 7.0
2017-Dec-18 04:50 300 19 5.4 6.0
2017-Dec-18 04:20 300 19 5.4 6.0
2017-Dec-18 03:50 310 20 5.4 6.0
2017-Dec-18 03:20 310 20 5.4 6.0
2017-Dec-18 02:50 310 22 5.4 6.0
2017-Dec-18 02:20 310 20 5.4 6.0
2017-Dec-18 01:50 310 24 5.4 6.0
2017-Dec-18 01:20 300 28 5.4 6.0
2017-Dec-18 00:50 310 27 5.4 6.0
2017-Dec-18 00:20 300 27 5.4 7.0
2017-Dec-17 23:50 310 29 5.4 6.0
2017-Dec-17 23:20 310 33 5.4 6.0
2017-Dec-17 22:50 310 32 5.4 6.0 Light rain showers.
2017-Dec-17 22:20 320 34 5.4 5.0 Light rain showers.
2017-Dec-17 21:50 310 34 5.4 6.0
2017-Dec-17 21:20 300 36 5.4 6.0
2017-Dec-17 20:50 300 36 5.4 6.0
2017-Dec-17 20:20 300 36 5.4 6.0
2017-Dec-17 19:50 290 34 5.4 6.0 Light rain showers.
2017-Dec-17 19:20 290 34 gusting 44 5.4 7.0
2017-Dec-17 18:50 280 35 5.4 7.0
2017-Dec-17 18:20 280 34 5.4 7.0
2017-Dec-17 17:50 290 28 5.4 7.0
2017-Dec-17 17:20 290 31 5.4 7.0
2017-Dec-17 16:50 300 27 5.4 7.0 Light rain showers.
2017-Dec-17 16:20 290 22 3.8 7.0 Light rain.
2017-Dec-17 15:50 210 28 2.7 7.0 Light rain.
2017-Dec-17 15:20 200 33 2.7 7.0 Light rain.
2017-Dec-17 14:50 200 31 4.9 7.0 Light rain.
2017-Dec-17 14:20 200 38 3.2 7.0 Light rain.
2017-Dec-17 13:50 190 41 2.7 7.0 Light rain.
2017-Dec-17 13:20 180 41 3.8 7.0 Light rain.
2017-Dec-17 12:50 180 41 3.8 6.0 Light rain.
2017-Dec-17 12:20 190 45 3.8 6.0 Light rain.
2017-Dec-17 11:50 180 42 4.9 6.0 Light rain.
2017-Dec-17 11:20 190 40 5.4 6.0 Light rain.
2017-Dec-17 10:50 190 40 5.4 6.0 Light rain.
2017-Dec-17 10:20 190 41 5.4 6.0 Light rain showers.
2017-Dec-17 09:50 180 38 5.4 6.0 Light rain showers.
2017-Dec-17 09:20 190 34 5.4 6.0
2017-Dec-17 08:50 190 34 5.4 6.0
2017-Dec-17 08:20 190 32 5.4 6.0
2017-Dec-17 07:50 190 32 5.4 6.0
2017-Dec-17 07:20 190 27 5.4 6.0
2017-Dec-17 06:50 190 25 5.4 5.0
2017-Dec-17 06:20
2017-Dec-17 05:50 200 20 5.4 5.0
2017-Dec-17 05:20 210 22 5.4 5.0
2017-Dec-17 04:50 210 19 5.4 5.0
2017-Dec-17 04:20 210 18 5.4 5.0
2017-Dec-17 03:50 220 15 5.4 5.0
2017-Dec-17 03:20 240 15 5.4 5.0
2017-Dec-17 02:50 250 19 5.4 5.0
2017-Dec-17 02:20 240 20 5.4 5.0
2017-Dec-17 01:50 250 18 5.4 5.0
2017-Dec-17 01:20 250 14 5.4 5.0
2017-Dec-17 00:50 250 17 5.4 5.0
2017-Dec-17 00:20 250 14 5.4 5.0
2017-Dec-16 23:50 270 8 5.4 5.0
2017-Dec-16 23:20 280 11 5.4 5.0
2017-Dec-16 22:50 270 13 5.4 5.0
2017-Dec-16 22:20 300 9 5.4 5.0
2017-Dec-16 21:50 310 6 5.4 4.0
2017-Dec-16 21:20 320 8 5.4 4.0
2017-Dec-16 20:50 300 8 5.4 4.0
2017-Dec-16 20:20 300 9 5.4 4.0